Miscellaneous Local Product
Issued by NWS Hastings, NE

Home | Current Version | Previous Version | Graphics & Text | Print | Product List | Glossary On
Versions: 1 2 3 4 5 6 7 8 9 10 11 12 13 14 15 16 17 18 19 20 21 22 23 24 25 26 27 28 29 30 31 32 33 34 35 36 37 38 39 40 41 42 43 44 45 46 47 48 49 50
000
AXUS43 KGID 232002
MISGRI

GID CWA HOURLY WEATHER ROUNDUP
NATIONAL WEATHER SERVICE HASTINGS NE
300 PM CDT THU MAR 23 2017

NOTE: "FAIR" INDICATES FEW OR NO CLOUDS BELOW 12,000 FEET WITH NO
SIGNIFICANT WEATHER AND/OR OBSTRUCTIONS TO VISIBILITY.

...SOUTH CENTRAL NEBRASKA...

CITY           SKY/WX    TMP DP  RH WIND       PRES   REMARKS
GRAND ISLAND   CLOUDY    60  55  83 S14       29.68F
HASTINGS       CLOUDY    64  56  75 S18G28    29.67F
KEARNEY        CLOUDY    64  55  72 S21       29.64F
ORD            CLOUDY    53  51  93 SE12      29.63F FOG
YORK           CLOUDY    63  54  72 S15       29.69F
AURORA         CLOUDY    61  55  78 S16G22    29.68F
LEXINGTON      CLOUDY    69  58  70 SE10      29.61F
HOLDREGE       PTSUNNY   71  56  57 S26G33    29.61F
HEBRON         PTSUNNY   71  55  56 S30G38    29.69F

...NEBRASKA PANHANDLE...

CITY           SKY/WX    TMP DP  RH WIND       PRES   REMARKS
CHADRON        SUNNY     66  40  38 VRB5      29.59F
ALLIANCE       SUNNY     67  40  37 VRB3      29.58F
SCOTTSBLUFF    SUNNY     70  39  32 SE8       29.58F
SIDNEY         SUNNY     71  36  27 E7        29.60F

...WESTERN AND NORTH CENTRAL NEBRASKA...

CITY           SKY/WX    TMP DP  RH WIND       PRES   REMARKS
VALENTINE      MOSUNNY   60  45  57 S12       29.59F
AINSWORTH      CLOUDY    56  49  80 S10       29.61F
ONEILL         CLOUDY    55  51  88 S18G25    29.64F
BROKEN BOW     CLOUDY    55  30  38 S10       29.63F HAZE
IMPERIAL       SUNNY     75  48  38 SE10      29.56F
NORTH PLATTE   MOSUNNY   65  54  67 SE10      29.60F
MCCOOK         SUNNY     83  51  33 S14G23    29.55F

...EASTERN NEBRASKA...

CITY           SKY/WX    TMP DP  RH WIND       PRES   REMARKS
NORFOLK        CLOUDY    56  49  77 S16       29.69R
SO SIOUX CITY  TSTM      53  42  66 SE16      29.73F
TEKAMAH        CLOUDY    61  42  49 SE8       29.79F
COLUMBUS       CLOUDY    61  52  72 S22G30    29.71F
ALBION         CLOUDY    57  52  85 S16G22    29.69F HAZE
OMAHA EPPLEY   CLOUDY    68  48  48 S18       29.76F
OFFUTT AFB     CLOUDY    67  49  52 SE14      29.73F
MILLARD        CLOUDY    69  52  54 SE10      29.74F
LINCOLN        CLOUDY    71  54  54 S17G29    29.72F
NEBRASKA CITY  CLOUDY    71  46  40 S20G25    29.77F
BEATRICE       CLOUDY    71  55  55 S22G33    29.72F
FALLS CITY     SUNNY     78  52  40 S21G36    29.77F

...NORTHERN KANSAS...

CITY           SKY/WX    TMP DP  RH WIND       PRES   REMARKS
GOODLAND       MOSUNNY   81  40  23 S18G25    29.58F
HILL CITY      SUNNY     80  57  45 S25G33    29.61F
NORTON         CLEAR     79  50  36 S26G32    29.58F
PHILLIPSBURG   SUNNY     77  55  47 S24G37    29.63F
HAYS             N/A     77  57  50 S28G38    29.64F
RUSSELL        MOSUNNY   78  57  48 S29G40    29.66F
CONCORDIA      MOSUNNY   72  57  59 S33G41    29.72F
SALINA         MOSUNNY   75  57  53 S26G40    29.74F
TOPEKA         SUNNY     79  55  43 S24G33    29.79F



USA.gov is the U.S. government's official web portal to all federal, state and local government web resources and services.